This is the latest recevied weather packets stored in our database for station/object DN9EM-2. If no packets are shown the sender has not sent any weather packets the latest 10 day(s).
| Time | Temp. | Humidity | Pressure | Rain* | Wind** | Luminosity | Snow |
|---|---|---|---|---|---|---|---|
| 1777808466 | 23.33° C | 61% | 1012.5 hPa | 0 mm | - | - | - |
| 1777807863 | 22.22° C | 63% | 1012.5 hPa | 0 mm | - | - | - |
| 1777807260 | 22.22° C | 62% | 1012.6 hPa | 0 mm | - | - | - |
| 1777806657 | 22.78° C | 61% | 1012.8 hPa | 0 mm | - | - | - |
| 1777806055 | 22.22° C | 64% | 1013.1 hPa | 0 mm | - | - | - |
| 1777805452 | 22.22° C | 64% | 1013.1 hPa | 0 mm | - | - | - |
| 1777804850 | 21.11° C | 66% | 1013 hPa | 0 mm | - | - | - |
| 1777804247 | 21.11° C | 65% | 1013.2 hPa | 0 mm | - | - | - |
| 1777803644 | 21.11° C | 67% | 1013.1 hPa | 0 mm | - | - | - |
| 1777803042 | 20.56° C | 70% | 1013.2 hPa | 0 mm | - | - | - |
| 1777802439 | 20° C | 71% | 1013.4 hPa | 0 mm | - | - | - |
| 1777801837 | 20.56° C | 71% | 1013.5 hPa | 0 mm | - | - | - |
| 1777801234 | 20° C | 72% | 1013.6 hPa | 0 mm | - | - | - |
| 1777800631 | 19.44° C | 74% | 1013.8 hPa | 0 mm | - | - | - |
| 1777800029 | 18.89° C | 76% | 1013.9 hPa | 0 mm | - | - | - |
| 1777799426 | 18.33° C | 77% | 1013.8 hPa | 0 mm | - | - | - |
| 1777798823 | 17.78° C | 79% | 1013.8 hPa | 0 mm | - | - | - |
| 1777798221 | 17.78° C | 79% | 1013.9 hPa | 0 mm | - | - | - |
| 1777797618 | 17.78° C | 80% | 1013.9 hPa | 0 mm | - | - | - |
| 1777797016 | 17.22° C | 81% | 1013.9 hPa | 0 mm | - | - | - |
| 1777796473 | 17.22° C | 82% | 1013.9 hPa | 0 mm | - | - | - |
| 1777795870 | 17.78° C | 81% | 1014 hPa | 0 mm | - | - | - |
| 1777795268 | 17.22° C | 81% | 1013.9 hPa | 0 mm | - | - | - |
| 1777794665 | 17.78° C | 82% | 1013.9 hPa | 0 mm | - | - | - |
| 1777794063 | 17.22° C | 84% | 1013.8 hPa | 0 mm | - | - | - |
* Rain latest hour (hover to see other rain measurements)
** Current wind speed in m/s (hover to see current wind gust speed)